Location: Observatoire de Paris
(48.8363°N, 2.3365°E)
Time: 14:25:50
(UTC+01:00)

STRAND 1 - Visible Passes

Search period start: 24 September 2021 00:00
Search period end: 04 October 2021 00:00
Orbit: 768 x 781 km, 98.4° (Epoch: 23 September)

Date Brightness Start Highest point End Pass type
(mag) Time Alt. Az. Time Alt. Az. Time Alt. Az.
24 Sep ? 05:54:17 10° ESE 05:58:29 26° ENE 06:02:42 10° N visible
24 Sep ? 19:38:34 10° NNE 19:43:27 41° E 19:48:18 10° SSE visible
24 Sep ? 21:17:59 10° N 21:22:31 32° WNW 21:27:02 10° SW visible
25 Sep ? 05:21:57 10° E 05:24:50 15° NE 05:27:43 10° NNE visible
25 Sep ? 19:05:06 10° NE 19:09:05 22° E 19:13:03 10° SE visible
25 Sep ? 20:43:34 10° N 20:48:38 58° WNW 20:53:41 10° SSW visible
25 Sep ? 22:25:27 10° NW 22:26:46 11° NW 22:28:06 10° WNW visible
26 Sep ? 20:09:24 10° NNE 20:14:36 76° ESE 20:19:45 10° S visible
26 Sep ? 21:49:39 10° NNW 21:53:13 19° WNW 21:56:47 10° WSW visible
27 Sep ? 05:51:21 10° ESE 05:55:28 25° ENE 05:59:37 10° N visible
27 Sep ? 19:35:32 10° NNE 19:40:23 39° E 19:45:12 10° SSE visible
27 Sep ? 21:14:54 10° N 21:19:30 33° WNW 21:24:05 10° SW visible
28 Sep ? 05:19:06 10° E 05:21:49 15° NE 05:24:33 10° NNE visible
28 Sep ? 19:02:08 10° NE 19:06:01 21° E 19:09:51 10° SE visible
28 Sep ? 20:40:30 10° N 20:45:36 61° WNW 20:50:41 10° SSW visible
28 Sep ? 22:22:07 10° NNW 22:23:47 12° NW 22:25:28 10° WNW visible
29 Sep ? 20:06:22 10° NNE 20:11:32 72° ESE 20:16:41 10° S visible
29 Sep ? 21:46:31 10° NNW 21:50:12 20° WNW 21:53:53 10° WSW visible
30 Sep ? 05:48:24 10° ESE 05:52:27 24° ENE 05:56:30 10° N visible
30 Sep ? 19:32:31 10° NNE 19:37:19 37° E 19:42:05 10° SSE visible
30 Sep ? 21:11:48 10° N 21:16:28 35° WNW 21:21:06 10° SW visible
01 Oct ? 05:16:16 10° E 05:18:49 14° NE 05:21:22 10° NNE visible
01 Oct ? 18:59:11 10° NE 19:02:55 20° E 19:06:38 10° SE visible
01 Oct ? 20:37:26 10° N 20:42:34 65° WNW 20:47:39 10° SSW visible
01 Oct ? 22:18:49 10° NNW 22:20:47 12° NW 22:22:44 10° WNW visible
02 Oct ? 06:18:27 10° SE 06:23:13 41° ENE 06:28:00 10° N visible
02 Oct ? 20:03:19 10° NNE 20:08:30 68° ESE 20:13:37 10° S visible
02 Oct ? 21:43:23 10° N 21:47:11 21° WNW 21:51:00 10° WSW visible
03 Oct ? 05:45:28 10° ESE 05:49:25 23° ENE 05:53:24 10° N visible
03 Oct ? 19:29:31 10° NNE 19:34:15 35° E 19:38:57 10° SSE visible
03 Oct ? 21:08:43 10° N 21:13:26 37° WNW 21:18:09 10° SW visible
